Easton, MD

1:43 PM EST on November 18, 2019 (GMT -0500)
Easton / Newnam

Weather History for KESN - September, 2019

Change the Weather History Date:

Tuesday, September 10, 2019

  Actual Average Record
Temperature  
Mean Temperature 75 °F -  
Max Temperature 87 °F 81 °F 91 °F (1970)
Min Temperature 63 °F 59 °F 41 °F (1949)
Cooling Degree Days 10    
Growing Degree Days 25 (Base 50)    
Moisture  
Dew Point 65 °F    
Average Humidity 81    
Maximum Humidity 100    
Minimum Humidity 43    
Precipitation  
Precipitation 0.00 in - - ()
Sea Level Pressure  
Sea Level Pressure 30.32 in    
Wind  
Wind Speed 2 mph (SE)    
Max Wind Speed 9 mph    
Max Gust Speed -    
Visibility 10 miles    
Events      
Averages and records for this station are not official NWS values.
T = Trace of Precipitation, MM = Missing Value Source: NWS Daily Summary

Daily Weather History Graph

Daily Weather History Graph

Search for Another Location

Airport or City:

Astronomy

Sep. 10, 2019 Rise Set
Actual Time 6:41 AM EDT 7:20 PM EDT
Civil Twilight 6:14 AM EDT 7:47 PM EDT
Nautical Twilight 5:42 AM EDT 8:19 PM EDT
Astronomical Twilight 5:09 AM EDT 8:51 PM EDT
Moon 5:53 PM EDT (9/10) 3:07 AM EDT (9/10)
Length of Visible Light 13h 33m
Length of Day
12h 39m
Waxing Gibbous, 89% of the Moon is Illuminated
Sep 10
Waxing Gibbous
Sep 14
Full
Sep 21
Last Quarter
Sep 28
New
Oct 5
First Quarter

Hourly Weather History & Observations

Time (EDT) Temp. Heat Index Dew Point Humidity Pressure Visibility Wind Dir Wind Speed Gust Speed Precip Events Conditions
12:00 AM 69.8 °F - 65.3 °F 86% 30.29 in 10.0 mi Calm Calm - N/A   Clear
12:20 AM 68.7 °F - 65.1 °F 88% 30.29 in 10.0 mi Calm Calm - N/A   Clear
12:40 AM 68.9 °F - 65.7 °F 89% 30.29 in 10.0 mi Calm Calm - N/A   Clear
1:00 AM 68.9 °F - 65.7 °F 89% 30.29 in 10.0 mi Calm Calm - N/A   Scattered Clouds
1:19 AM 68.2 °F - 65.3 °F 90% 30.29 in 10.0 mi East 3.5 mph - N/A   Scattered Clouds
1:39 AM 68.0 °F - 65.5 °F 92% 30.30 in 10.0 mi Calm Calm - N/A   Clear
1:59 AM 67.6 °F - 65.5 °F 93% 30.30 in 10.0 mi Calm Calm - N/A   Clear
2:19 AM 67.6 °F - 65.7 °F 93% 30.29 in 10.0 mi ESE 3.5 mph - N/A   Clear
2:39 AM 67.1 °F - 65.3 °F 94% 30.29 in 10.0 mi East 3.5 mph - N/A   Clear
2:59 AM 67.1 °F - 65.5 °F 95% 30.30 in 10.0 mi Calm Calm - N/A   Clear
3:19 AM 66.4 °F - 65.1 °F 96% 30.30 in 10.0 mi East 3.5 mph - N/A   Clear
3:39 AM 66.2 °F - 64.8 °F 95% 30.30 in 10.0 mi Calm Calm - N/A   Clear
3:59 AM 65.7 °F - 64.4 °F 96% 30.30 in 10.0 mi Calm Calm - N/A   Clear
4:19 AM 65.3 °F - 64.0 °F 96% 30.30 in 5.0 mi Calm Calm - N/A   Clear
4:39 AM 64.6 °F - 63.5 °F 96% 30.31 in 10.0 mi Calm Calm - N/A   Clear
4:59 AM 64.2 °F - 63.1 °F 96% 30.31 in 10.0 mi Calm Calm - N/A   Clear
5:19 AM 64.9 °F - 63.9 °F 96% 30.32 in 7.0 mi Calm Calm - N/A   Clear
5:39 AM 63.7 °F - 62.6 °F 96% 30.33 in 7.0 mi Calm Calm - N/A   Scattered Clouds
5:40 AM 63.7 °F - 62.6 °F 96% 30.33 in 7.0 mi Calm Calm - N/A   Scattered Clouds
5:45 AM 64.4 °F - 64.4 °F 100% 30.34 in 7.0 mi NNE 3.5 mph - N/A   Overcast
6:50 AM 64.4 °F - 64.4 °F 100% 30.35 in 7.0 mi East 3.5 mph - N/A   Scattered Clouds
7:50 AM 68.0 °F - 66.2 °F 94% 30.36 in 10.0 mi East 3.5 mph - N/A   Scattered Clouds
8:50 AM 71.6 °F - 68.0 °F 88% 30.38 in 10.0 mi East 4.6 mph - N/A   Scattered Clouds
9:50 AM 77.0 °F - 68.0 °F 74% 30.38 in 10.0 mi ESE 5.8 mph - N/A   Scattered Clouds
10:50 AM 80.6 °F 82.3 °F 64.4 °F 58% 30.37 in 10.0 mi South 5.8 mph - N/A   Mostly Cloudy
11:55 AM 82.4 °F 83.4 °F 62.6 °F 51% 30.37 in 10.0 mi Calm Calm - N/A   Scattered Clouds
12:50 PM 84.2 °F 84.4 °F 60.8 °F 45% 30.36 in 10.0 mi South 9.2 mph - N/A   Partly Cloudy
1:46 PM 86.0 °F 86.1 °F 60.8 °F 43% 30.34 in 10.0 mi SE 4.6 mph - N/A   Scattered Clouds
2:50 PM 87.8 °F 88.5 °F 62.6 °F 43% 30.33 in 10.0 mi SSW 4.6 mph - N/A   Scattered Clouds
3:45 PM 87.8 °F 88.5 °F 62.6 °F 43% 30.31 in 10.0 mi South 6.9 mph - N/A   Scattered Clouds
4:50 PM 86.0 °F 88.2 °F 66.2 °F 51% 30.31 in 10.0 mi WSW 6.9 mph - N/A   Scattered Clouds
5:50 PM 84.2 °F 87.3 °F 68.0 °F 58% 30.31 in 10.0 mi SSW 6.9 mph - N/A   Scattered Clouds
6:50 PM 80.6 °F 82.7 °F 66.2 °F 61% 30.31 in 10.0 mi South 8.1 mph - N/A   Scattered Clouds
7:50 PM 78.8 °F - 66.2 °F 65% 30.31 in 10.0 mi SSE 6.9 mph - N/A   Clear
8:45 PM 75.2 °F - 66.2 °F 73% 30.31 in 10.0 mi SSE 6.9 mph - N/A   Clear
9:45 PM 73.4 °F - 66.2 °F 78% 30.31 in 10.0 mi SE 8.1 mph - N/A   Clear
10:19 PM 73.6 °F - 67.1 °F 80% 30.31 in 10.0 mi SSE 8.1 mph - N/A   Clear
10:39 PM 73.0 °F - 67.1 °F 82% 30.31 in 10.0 mi SSE 5.8 mph - N/A   Clear
11:00 PM 72.5 °F - 67.3 °F 84% 30.31 in 10.0 mi SSE 5.8 mph - N/A   Clear
11:20 PM 72.1 °F - 67.3 °F 85% 30.30 in 10.0 mi SSE 5.8 mph - N/A   Clear
11:40 PM 72.0 °F - 67.5 °F 86% 30.31 in 10.0 mi SSE 6.9 mph - N/A   Clear